Find Starlink 30428

NORAD ID: 57906 Int'l Des: 2023-146 Owner: SPXS Country: US Constellation: starlink operational
LEOCIRCULAR

实时位置

正在加载3D地球...

关于 Starlink 30428

正在加载描述...

即将过境

Passes for default location (London). Set your location on the main map for personalized predictions.

高度历史

Loading altitude history...

两行轨道根数

1 57906U 23146R 26126.62718496 .00000612 00000-0 31765-4 0 9998
2 57906 42.9970 347.2830 0000650 153.9277 206.1607 15.27573224144854
Epoch: May 6, 2026 • Age: 6 hours

当前状态

高度 484.9 km
速度 7.62 km/s
星下点 -9.02°S, 152.25°E
发射日期 Sep 20, 2023
运行时间 2.6 years
类型 internet

技术详情

分类 Payload
质量 730.00 kg
干质量 700.00 kg
总质量 730.00 kg
长度 0.30 m
直径 4.10 m
跨度 29.00 m
形状 Box + pan
制造商 SPXS
平台类型 Starlink V2M
阶段状态 In Orbit
所有者/国家 SPXS/US

Most Searched